When you browse on this site, cookies collect data to enhance your experience and personalize the content and advertising you see.
Visit our Privacy Policy to learn more. By continuing to use the site, you agree to this use of cookies and data.
  • In Hungary
  • List of Countries
  • For 7 days
  • Water Temperature
  • Satellite Maps
  • Weather Map
  • News
  • Weather Widgets
  • user-avatar
    Login

    Hourly Weather Albignasego

    Today, 15 December, Saturday

    Time Temperature Precipitation Wind Pressure Humidity
    00:00 +1°C° 0 mm 3 mps 763 mmHg 58%
    01:00 +1°C° 0 mm 3 mps 763 mmHg 57%
    02:00 +1°C° 0 mm 3 mps 763 mmHg 57%
    03:00 +1°C° 0 mm 3 mps 763 mmHg 56%
    04:00 0°C° 0 mm 3 mps 764 mmHg 55%
    05:00 0°C° 0 mm 3 mps 764 mmHg 54%
    06:00 0°C° 0 mm 3 mps 764 mmHg 54%
    07:00 +1°C° 0 mm 2 mps 764 mmHg 53%
    08:00 +2°C° 0 mm 2 mps 764 mmHg 51%
    09:00 +3°C° 0 mm 2 mps 764 mmHg 48%
    10:00 +3°C° 0 mm 2 mps 764 mmHg 45%
    11:00 +4°C° 0 mm 2 mps 764 mmHg 44%
    12:00 +5°C° 0 mm 2 mps 764 mmHg 42%
    13:00 +6°C° 0 mm 2 mps 764 mmHg 41%
    14:00 +5°C° 0 mm 2 mps 764 mmHg 45%
    15:00 +6°C° 0 mm 1 mps 764 mmHg 49%
    16:00 +5°C° 0 mm 1 mps 764 mmHg 53%
    17:00 +4°C° 0 mm 1 mps 764 mmHg 56%
    18:00 +4°C° 0 mm 1 mps 765 mmHg 59%
    19:00 +3°C° 0 mm 1 mps 765 mmHg 62%
    20:00 +3°C° 0 mm 1 mps 765 mmHg 62%
    21:00 +3°C° 0 mm 1 mps 765 mmHg 62%
    22:00 +2°C° 0 mm 1 mps 765 mmHg 62%
    23:00 +2°C° 0 mm 1 mps 765 mmHg 62%

    Tomorrow, 16 December, Sunday

    Time Temperature Precipitation Wind Pressure Humidity
    00:00 +2°C° 0 mm 1 mps 765 mmHg 61%
    01:00 +2°C° 0 mm 1 mps 765 mmHg 61%
    02:00 +2°C° 0 mm 1 mps 765 mmHg 61%
    03:00 +2°C° 0 mm 1 mps 765 mmHg 61%
    04:00 +2°C° 0 mm 1 mps 764 mmHg 61%
    05:00 +2°C° 0 mm 1 mps 764 mmHg 60%
    06:00 +2°C° 0 mm 1 mps 764 mmHg 60%
    07:00 +2°C° 0 mm 1 mps 764 mmHg 60%
    08:00 +2°C° 0 mm 1 mps 764 mmHg 57%
    09:00 +3°C° 0 mm 1 mps 764 mmHg 55%
    10:00 +4°C° 0 mm 1 mps 764 mmHg 53%
    11:00 +4°C° 0 mm 1 mps 764 mmHg 52%
    12:00 +5°C° 0 mm 1 mps 763 mmHg 52%
    13:00 +6°C° 0 mm 1 mps 763 mmHg 52%
    14:00 +6°C° 0 mm 1 mps 763 mmHg 56%
    15:00 +5°C° 0 mm 1 mps 763 mmHg 59%
    16:00 +5°C° 0 mm 1 mps 763 mmHg 63%
    17:00 +4°C° 0.1 mm 2 mps 763 mmHg 65%
    18:00 +4°C° 0.1 mm 2 mps 763 mmHg 66%
    19:00 +3°C° 0.1 mm 2 mps 763 mmHg 68%
    20:00 +2°C° 0.7 mm 3 mps 763 mmHg 71%
    21:00 +2°C° 0.7 mm 3 mps 763 mmHg 75%
    22:00 +2°C° 0.7 mm 3 mps 763 mmHg 78%
    23:00 +1°C° 1.5 mm 4 mps 762 mmHg 80%

    Day after tomorrow, 17 December, Monday

    Time Temperature Precipitation Wind Pressure Humidity
    00:00 +1°C° 1.5 mm 4 mps 762 mmHg 82%
    01:00 +1°C° 1.5 mm 4 mps 762 mmHg 85%
    02:00 +1°C° 1.2 mm 4 mps 762 mmHg 85%
    03:00 +1°C° 1.2 mm 4 mps 762 mmHg 86%
    04:00 +2°C° 1.2 mm 3 mps 762 mmHg 87%
    05:00 +2°C° 0.4 mm 3 mps 762 mmHg 87%
    06:00 +2°C° 0.4 mm 3 mps 762 mmHg 87%
    07:00 +3°C° 0.4 mm 2 mps 762 mmHg 87%
    08:00 +4°C° 0.1 mm 2 mps 763 mmHg 87%
    09:00 +4°C° 0.1 mm 2 mps 763 mmHg 87%
    10:00 +4°C° 0.1 mm 2 mps 763 mmHg 87%
    11:00 +5°C° 0 mm 2 mps 763 mmHg 86%
    12:00 +5°C° 0 mm 2 mps 763 mmHg 84%
    13:00 +6°C° 0 mm 2 mps 763 mmHg 83%
    14:00 +5°C° 0 mm 2 mps 763 mmHg 84%
    15:00 +5°C° 0 mm 2 mps 763 mmHg 85%
    16:00 +4°C° 0 mm 2 mps 764 mmHg 86%
    17:00 +4°C° 0 mm 2 mps 765 mmHg 86%
    18:00 +3°C° 0 mm 2 mps 765 mmHg 87%
    19:00 +3°C° 0 mm 2 mps 766 mmHg 88%
    20:00 +3°C° 0 mm 2 mps 767 mmHg 87%
    21:00 +3°C° 0 mm 2 mps 767 mmHg 86%
    22:00 +3°C° 0 mm 2 mps 768 mmHg 85%
    23:00 +2°C° 0 mm 2 mps 768 mmHg 84%

    18 December, Tuesday

    Time Temperature Precipitation Wind Pressure Humidity
    00:00 +2°C° 0 mm 2 mps 769 mmHg 83%
    01:00 +2°C° 0 mm 2 mps 769 mmHg 82%
    02:00 +2°C° 0 mm 2 mps 769 mmHg 82%
    03:00 +2°C° 0 mm 2 mps 769 mmHg 82%
    04:00 +2°C° 0 mm 2 mps 770 mmHg 82%
    05:00 +2°C° 0 mm 2 mps 770 mmHg 82%
    06:00 +2°C° 0 mm 1 mps 770 mmHg 82%
    07:00 +2°C° 0 mm 1 mps 770 mmHg 82%
    08:00 +3°C° 0 mm 1 mps 771 mmHg 80%
    09:00 +4°C° 0 mm 1 mps 771 mmHg 78%
    10:00 +5°C° 0 mm 1 mps 771 mmHg 76%
    11:00 +6°C° 0 mm 1 mps 771 mmHg 73%
    12:00 +6°C° 0 mm 1 mps 770 mmHg 71%
    13:00 +7°C° 0 mm 1 mps 770 mmHg 68%
    14:00 +7°C° 0 mm 1 mps 770 mmHg 71%
    15:00 +6°C° 0 mm 1 mps 770 mmHg 73%
    16:00 +6°C° 0 mm 1 mps 769 mmHg 76%
    17:00 +5°C° 0 mm 1 mps 769 mmHg 77%
    18:00 +5°C° 0 mm 1 mps 769 mmHg 77%
    19:00 +4°C° 0 mm 1 mps 769 mmHg 78%
    20:00 +4°C° 0 mm 1 mps 769 mmHg 78%
    21:00 +4°C° 0 mm 1 mps 769 mmHg 78%
    22:00 +4°C° 0 mm 1 mps 769 mmHg 78%
    23:00 +3°C° 0 mm 1 mps 769 mmHg 78%

    19 December, Wednesday

    Time Temperature Precipitation Wind Pressure Humidity
    00:00 +3°C° 0 mm 1 mps 769 mmHg 78%
    01:00 +3°C° 0 mm 1 mps 768 mmHg 78%
    02:00 +3°C° 0 mm 1 mps 768 mmHg 78%
    03:00 +3°C° 0 mm 1 mps 768 mmHg 78%
    04:00 +3°C° 0 mm 1 mps 767 mmHg 78%
    05:00 +3°C° 0 mm 1 mps 767 mmHg 78%
    06:00 +3°C° 0 mm 1 mps 767 mmHg 77%
    07:00 +3°C° 0 mm 1 mps 766 mmHg 77%
    08:00 +4°C° 0 mm 1 mps 766 mmHg 75%
    09:00 +4°C° 0 mm 1 mps 766 mmHg 73%
    10:00 +5°C° 0 mm 1 mps 766 mmHg 71%
    11:00 +5°C° 0 mm 1 mps 766 mmHg 69%
    12:00 +6°C° 0 mm 1 mps 765 mmHg 68%
    13:00 +6°C° 0 mm 0 mps 765 mmHg 66%
    14:00 +6°C° 0 mm 1 mps 765 mmHg 70%
    15:00 +6°C° 0 mm 1 mps 765 mmHg 74%
    16:00 +6°C° 0 mm 1 mps 764 mmHg 77%
    17:00 +5°C° 0 mm 1 mps 764 mmHg 79%
    18:00 +4°C° 0 mm 2 mps 764 mmHg 80%
    19:00 +4°C° 0 mm 2 mps 765 mmHg 81%
    20:00 +4°C° 0.1 mm 2 mps 765 mmHg 82%
    21:00 +4°C° 0.1 mm 2 mps 765 mmHg 82%
    22:00 +4°C° 0.1 mm 2 mps 765 mmHg 83%
    23:00 +4°C° 0.4 mm 2 mps 764 mmHg 83%

    20 December, Thursday

    Time Temperature Precipitation Wind Pressure Humidity
    00:00 +3°C° 0.4 mm 3 mps 764 mmHg 84%
    01:00 +3°C° 0.4 mm 3 mps 764 mmHg 84%
    02:00 +3°C° 0.3 mm 3 mps 764 mmHg 84%
    03:00 +4°C° 0.3 mm 3 mps 764 mmHg 84%
    04:00 +4°C° 0.3 mm 3 mps 763 mmHg 85%
    05:00 +4°C° 0.8 mm 3 mps 764 mmHg 85%
    06:00 +4°C° 0.8 mm 3 mps 764 mmHg 86%
    07:00 +5°C° 0.8 mm 2 mps 764 mmHg 86%
    08:00 +5°C° 0.4 mm 2 mps 764 mmHg 86%
    09:00 +5°C° 0.4 mm 2 mps 764 mmHg 86%
    10:00 +5°C° 0.4 mm 2 mps 764 mmHg 86%
    11:00 +6°C° 0.2 mm 2 mps 764 mmHg 84%
    12:00 +6°C° 0.2 mm 2 mps 763 mmHg 82%
    13:00 +7°C° 0.2 mm 2 mps 763 mmHg 81%
    14:00 +7°C° 0.1 mm 2 mps 763 mmHg 82%
    15:00 +6°C° 0.1 mm 2 mps 763 mmHg 84%
    16:00 +6°C° 0.1 mm 2 mps 763 mmHg 86%
    17:00 +5°C° 0 mm 2 mps 763 mmHg 87%
    18:00 +5°C° 0 mm 2 mps 764 mmHg 88%
    19:00 +4°C° 0 mm 2 mps 764 mmHg 89%
    20:00 +4°C° 0 mm 2 mps 764 mmHg 88%
    21:00 +4°C° 0 mm 2 mps 764 mmHg 87%
    22:00 +4°C° 0 mm 2 mps 764 mmHg 86%
    23:00 +4°C° 0.1 mm 2 mps 764 mmHg 86%
    Show more